Location: Le Rocchette
(44.3500°N, 7.8333°E)
Time: 18:45:19
(UTC+00:00)

CZ-4B R/B - Pass Details

Date: 17 November 2019
Orbit: 809 x 882 km, 99.1° (Epoch: 07 December)

Event Time Altitude Azimuth Distance (km) Brightness Sun altitude
Rises 05:31:05 0° 11° (N) 3,364 6.3 -10.1°
Reaches altitude 10° 05:33:26 10° 8° (N) 2,436 5.5 -9.7°
Maximum altitude 05:38:45 64° 289° (WNW) 926 3.2 -8.8°
Drops below altitude 10° 05:44:09 10° 209° (SSW) 2,466 5.5 -7.8°
Sets 05:46:32 0° 206° (SSW) 3,408 6.3 -7.4°
